Skip Page Navigation
NASA JPL Caltech
NASA Logo - Jet Propulsion Laboratory + View the NASA Portal
+ Center for Near-Earth Object Studies
JPL Home Earth Solar System Stars & Galaxies Technology
JPL Solar System Dynamics
BODIES ORBITS EPHEMERIDES TOOLS PHYSICAL DATA DISCOVERY FAQ SITE MAP
JPL Small-Body Database Browser
Search: [ help ]  
26455 Priyamshah (2000 AP95)
Classification: Main-belt Asteroid          SPK-ID: 2026455
Ephemeris | Orbit Diagram | Orbital Elements | Mission Design | Physical Parameters | Discovery Circumstances ]

[ show orbit diagram ]
Orbital Elements at Epoch 2459000.5 (2020-May-31.0) TDB
Reference: JPL 30 (heliocentric ecliptic J2000)
 Element Value Uncertainty (1-sigma)   Units 
e .04435032233553293 3.1956e-08  
a 2.704829470890795 1.2363e-08 au
q 2.58486941199414 8.6288e-08 au
i 3.736182125898023 3.4476e-06 deg
node 121.0985484444394 7.2964e-05 deg
peri 137.8247309430471 9.0869e-05 deg
M 89.39662955195806 5.5177e-05 deg
tp 2458597.015453440095
(2019-Apr-23.51545344)
0.00024842 TDB
period 1624.8312435218
4.45
1.114e-05
3.05e-08
d
yr
n .2215614707283108 1.5191e-09 deg/d
Q 2.824789529787452 1.2912e-08 au
  Orbit Determination Parameters
   # obs. used (total)      1392  
   data-arc span      9008 days (24.66 yr)  
   first obs. used      1996-03-19  
   last obs. used      2020-11-16  
   planetary ephem.      DE431  
   SB-pert. ephem.      SB431-N16  
   condition code      0  
   norm. resid. RMS      .50993  
   source      ORB  
   producer      Otto Matic  
   solution date      2020-Dec-17 20:50:58  

Additional Information
 Earth MOID = 1.57089 au 
 Jupiter MOID = 2.18889 au 
 T_jup = 3.361 
[ show covariance matrix ]

Ephemeris | Orbit Diagram | Orbital Elements | Mission Design | Physical Parameters | Discovery Circumstances ]

Physical Parameter Table
Parameter Symbol Value Units Sigma Reference Notes
absolute magnitude H 14.5   n/a MPO449155  
diameter diameter 4.660 km 0.414 urn:nasa:pds:neowise_diameters_albedos::2.0[mainbelt] (http://adsabs.harvard.edu/abs/2011ApJ...741...68M)  
geometric albedo albedo 0.155   0.040 urn:nasa:pds:neowise_diameters_albedos::2.0[mainbelt] (http://adsabs.harvard.edu/abs/2011ApJ...741...68M)  

26455 Priyamshah           Discovered 2000 Jan. 4 by the Lincoln Laboratory Near-Earth Asteroid Research Team at Socorro.
Priyam C. Shah (b. 1992) was awarded first place in the 2010 Intel International Science and Engineering Fair for his earth-science team project. He attends the Sunset High School, Portland, Oregon, U.S.A.
NOTE: some special characters may not display properly (any characters within {} are an attempt to place the proper accent above a character)
Reference: 20110319/MPCPages.arcLast Updated: 2011-03-23

Alternate Designations
 2000 AP95 = 1996 FB9 
Ephemeris | Orbit Diagram | Orbital Elements | Mission Design | Physical Parameters | Discovery Circumstances ]
ABOUT SSD CREDITS/AWARDS PRIVACY/COPYRIGHT GLOSSARY LINKS
FirstGov 2021-Jan-21 21:53 UT
(server date/time)  
NASA Home Page
Site Manager:   Ryan S. Park
Webmaster  Alan B. Chamberlin